Flag for France Weather past 2 weeks in Taiohae, Marquesas Islands, France

Now
73 °F

Mild.


Feels Like: 72 °F
Forecast: 77 / 81 °F
Wind: 1 mph from Northeast

Location: Atuona

Current Time: Oct 21, 2014 at 3:01:38 AM

Latest Report: Oct 21, 2014 at 1:30 AM


Visibility: N/A

Pressure: 29.88 "Hg

Humidity: 83%

Dew point: 67 °F

Location of TaiohaeLocation

Historic Weather in Taiohae — Graph

°F

Taiohae temperature yesterday

Maximum temperature yesterday: 89 °F (at 12:30 PM)
Minimum temperature yesterday: 71 °F (at 4:30 AM)
Average temperature yesterday: 78 °F

Past Weeks' High & Low Weather Summary

 TemperatureHumidityPressure
High92 °F (Oct 11, 10:30 AM)95% (Oct 19, 4:30 AM)30.01 "Hg (Oct 19, 4:30 AM)
Low71 °F (Oct 11, 1:30 AM)44% (Oct 20, 12:30 PM)29.75 "Hg (Oct 10, 3:30 PM)
Average79 °F74%29.90 "Hg
* Reported Oct 6 1:30 AM — Oct 21 1:30 AM, Taiohae, Weather by CustomWeather, © 2014

Note: Actual official high and low records may vary slightly from our data, if they occured in-between our weather recording intervals... More about our weather records

Advertising

Taiohae weather history for previous 24 hours

 ConditionsComfort  
Time TempWeatherWind HumidityBarometerVisibility
1:30 AM
Oct 21
73 °FMild.1 mph83%29.88 "HgN/A
12:30 AM72 °FMild.1 mph86%29.91 "HgN/A
11:30 PM
Oct 20
73 °FMild.2 mph86%29.92 "HgN/A
10:30 PM73 °FMild.2 mph84%29.94 "HgN/A
9:30 PM72 °FMild.1 mph86%29.94 "HgN/A
8:30 PM72 °FMild.1 mph84%29.93 "HgN/A
7:30 PM73 °FMild.3 mph84%29.91 "HgN/A
6:30 PM74 °FMild.3 mph86%29.90 "HgN/A
5:30 PM77 °FMild.3 mph84%29.88 "HgN/A
4:30 PM77 °FOvercast.8 mph83%29.86 "Hg12 mi
3:30 PM79 °FOvercast.7 mph78%29.85 "Hg6 mi
2:30 PM82 °FOvercast.18 mph69%29.85 "Hg6 mi
1:30 PM84 °FWarm.20 mph62%29.85 "HgN/A
12:30 PM89 °FHot.6 mph44%29.87 "HgN/A
11:30 AM85 °FWarm.15 mph63%29.90 "HgN/A
10:30 AM85 °FWarm.6 mph58%29.94 "HgN/A
9:30 AM84 °FWarm.3 mph62%29.96 "HgN/A
8:30 AM86 °FScattered clouds.15 mph59%29.96 "Hg6 mi
7:30 AM82 °FPassing clouds.3 mph62%29.96 "Hg25 mi
6:30 AM76 °FMild.2 mph74%29.94 "HgN/A
5:30 AM72 °FScattered clouds.No wind76%29.92 "Hg19 mi
4:30 AM71 °FMild.No wind79%29.90 "HgN/A
3:30 AM72 °FMild.1 mph81%29.88 "HgN/A
Weather by CustomWeather, © 2014

See weather overviewHow to use our weather pages